Regional Weather Roundup
Issued by NWS Sioux Falls, SD

Home | Current Version | Previous Version | Graphics & Text | Print | Product List | Glossary On
Versions: 1 2 3 4 5 6 7 8 9 10 11 12 13 14 15 16 17 18 19 20 21 22 23 24 25 26 27 28 29 30 31 32 33 34 35 36 37 38 39 40 41 42 43 44 45 46 47 48 49 50
000
ASUS43 KFSD 230602
RWRFSD

WEATHER ROUNDUP FOR SE SOUTH DAKOTA/SW MINNESOTA/NW IOWA
NATIONAL WEATHER SERVICE SIOUX FALLS SD
1200 AM CST THU NOV 23 2017

NOTE: "FAIR" INDICATES FEW OR NO CLOUDS BELOW 12,000 FEET WITH NO
SIGNIFICANT WEATHER AND OR OBSTRUCTIONS TO VISIBILITY.


SDZ038>040-050-052>070-230700-
SOUTHEAST SOUTH DAKOTA

CITY           SKY/WX    TMP DP  RH WIND       PRES   REMARKS
BROOKINGS      CLOUDY    26  20  77 CALM      29.93S
CHAMBERLAIN    CLEAR     49  39  69 NW9       30.00R
6HR MIN TEMP:  44; 6HR MAX TEMP:  52;

HURON          CLOUDY    30  27  88 NW10      29.98R WCI  21
6HR MIN TEMP:  27; 6HR MAX TEMP:  39;

MADISON        FAIR      36  28  75 W10       29.93S
MITCHELL       CLEAR     40  32  73 NW9       29.99R
6HR MIN TEMP:  32; 6HR MAX TEMP:  46;

SIOUX FALLS    CLOUDY    27  20  75 SW3       29.94R
6HR MIN TEMP:  26; 6HR MAX TEMP:  40;

WINNER         FAIR      47  38  71 W6        30.03R
YANKTON        CLEAR     48  34  58 NW13      29.96R
$$

MNZ071-072-080-081-089-090-097-098-230700-
SOUTHWEST MINNESOTA

CITY           SKY/WX    TMP DP  RH WIND       PRES   REMARKS
FAIRMONT       CLOUDY    25  18  74 S6        29.95F WCI  18
JACKSON        CLOUDY    32  19  59 CALM      29.93S
MARSHALL       CLOUDY    29  21  72 CALM      29.93R
6HR MIN TEMP:  29; 6HR MAX TEMP:  36;

MONTEVIDEO     CLOUDY    25  16  68 CALM      29.92R
PIPESTONE      CLOUDY    25  16  68 W3        29.92F
REDWOOD FALLS  CLOUDY    24  15  68 S3        29.91F
WINDOM         CLOUDY    28  14  54 S5        29.92S WCI  23
WORTHINGTON    CLOUDY    30  20  66 SW10      29.93F WCI  21
$$

IAZ001>003-012>014-020>022-031-032-NEZ013-014-SDZ071-230700-
NORTHWEST IOWA

CITY           SKY/WX    TMP DP  RH WIND       PRES   REMARKS
CHEROKEE       CLEAR     31  20  64 SW7       29.95F WCI  24
DENISON        CLEAR     34  19  55 S7        30.00F WCI  28
ESTHERVILLE    CLOUDY    28  18  66 SW8       29.94S WCI  20
LE MARS        CLEAR     32  21  64 S5        29.96R WCI  27
ORANGE CITY    CLEAR     30  21  69 SW5       29.94S WCI  25
SHELDON        CLOUDY    30  19  64 CALM      29.94R
SIOUX CITY     CLEAR     30  20  66 E8        29.97S WCI  22
6HR MIN TEMP:  28; 6HR MAX TEMP:  38;

SPENCER        CLOUDY    28  18  66 SW5       29.95S WCI  23
6HR MIN TEMP:  24; 6HR MAX TEMP:  33;

STORM LAKE     CLEAR     34  19  55 SW15      29.94F WCI  24
$$

ABBREVIATIONS USED IN REMARKS
   TC - TEMPERATURE IN CELSIUS
  WCI - WIND CHILL INDEX
   HX - HEAT INDEX
  VSB - VISIBILITY




USA.gov is the U.S. government's official web portal to all federal, state and local government web resources and services.